Regional Weather Roundup
Issued by NWS

Home | Current Version | Previous Version | Graphics & Text | Print | Product List | Glossary On
Versions: 1 2 3 4 5 6 7 8 9 10 11 12 13 14 15 16 17 18 19 20 21 22 23 24 25 26 27 28 29 30 31 32 33 34 35 36 37 38 39 40 41 42 43 44 45 46 47 48 49 50
000
ASUS43 KLOT 262203
RWRIL

ILLINOIS REGIONAL WEATHER ROUNDUP
NATIONAL WEATHER SERVICE CHICAGO/ROMEOVILLE IL
500 PM CDT WED APR 26 2017

NOTE: "FAIR" INDICATES FEW OR NO CLOUDS BELOW 12,000 FEET WITH NO
SIGNIFICANT WEATHER AND/OR OBSTRUCTIONS TO VISIBILITY.

* THESE STATIONS ARE NOT UNDER NWS QUALITY CONTROL. THEY ALSO MAY NOT
  REPORT WEATHER SUCH AS PRECIPITATION OR FOG.

ILZ001-002-007-009-015-016-024-262300-
NORTHWEST ILLINOIS

CITY           SKY/WX    TMP DP  RH WIND       PRES   REMARKS
MOLINE         CLOUDY    52  46  80 W8        29.53R
STERLING*      CLOUDY    55  51  86 W10       29.51S
SAVANNA*       CLOUDY    53  48  86 W8        29.51F
$$

ILZ003-004-008-010-011-017-018-262300-
NORTH CENTRAL ILLINOIS

CITY           SKY/WX    TMP DP  RH WIND       PRES   REMARKS
ROCKFORD       LGT RAIN  61  54  77 SW10      29.51R
FREEPORT*      CLOUDY    54  51  90 SW9G20    29.51F
ROCHELLE*      DRIZZLE   58  55  91 SW13      29.50F
DE KALB*       CLOUDY    62  57  86 W12       29.51F
PERU*          CLOUDY    59  55  88 W13       29.50F
$$

ILZ005-006-012>014-019>023-262300-
NORTHEAST ILLINOIS

CITY           SKY/WX    TMP DP  RH WIND       PRES   REMARKS
CHICAGO-OHARE  CLOUDY    72  56  57 SW12      29.48R
CHICAGO-MIDWAY CLOUDY    75  55  49 SW16G29   29.48R
AURORA         CLOUDY    65  60  84 W13       29.50S
LANSING*       CLOUDY    75  58  55 SW17      29.49S
JOLIET*        CLOUDY    72  58  60 W12G17    29.49S
WAUKEGAN       CLOUDY    70  56  61 SW16G25   29.47R
DUPAGE AIRPORT CLOUDY    69  59  70 W13       29.48S
KANKAKEE*      CLOUDY    74  53  47 SW18G24   29.50S
WHEELING       PTSUNNY   71  58  63 SW13G20   29.49R
MORRIS*        CLOUDY    69  57  66 W14       29.48S
NORTHERLY ISL    N/A     75  50  41 SW15        N/A
$$

LMZ740>746-262300-
SOUTHERN LAKE MICHIGAN

STATION/POSITION SKY/WX   TEMP    WIND        PRES    VSBY  WAVE
                          AIR SEA DIR/SP/G                  HT/PER
                          (F)     (DEG/KT/KT) (MB)    (MI)  (FT/S)
SOUTHERN BUOY              51 42  240/ 10/ 10  998.2          1/ 4
HARRISON CRIB              74     210/ 22/ 23   N/A
BURNHAM HARBOR             75     180/ 11/ 19   N/A
CALUMET HARBOR             75     190/ 12/ 16  997.7F
BURNS HARBOR               74     230/ 10/ 20  999.0R
MICHIGAN CITY              71     230/ 16/ 18   N/A
MICHIGAN CITY 6N           60 49                N/A           2/ 4
ST. JOSEPH                 54 49  290/  8/ 10  998.9R         1/ 3
$$

ILZ025>027-034>036-040-047-049-050-058-095>099-262300-
WEST-CENTRAL ILLINOIS

CITY           SKY/WX    TMP DP  RH WIND       PRES   REMARKS
QUINCY         CLOUDY    51  49  92 N12       29.50F
GALESBURG*     DRIZZLE   49  47  93 NW7       29.51F
MACOMB*        CLOUDY    51  49  95 N7        29.53F
JACKSONVILLE*  CLOUDY    58  57  96 N14       29.46F FOG
PITTSFIELD*    CLOUDY    54  53  95 NW6       29.48F
$$

ILZ028>032-037-038-041>044-048-051>054-059>061-262300-
CENTRAL ILLINOIS

CITY           SKY/WX    TMP DP  RH WIND       PRES   REMARKS
PONTIAC        CLOUDY    68  60  74 W12       29.51F
BLOOMINGTON    LGT RAIN  63  58  83 SW15      29.53S
DECATUR        LGT RAIN  63  62  97 CALM      29.48F
PEORIA         CLOUDY    59  56  89 W8        29.53R
LACON*         CLOUDY    59  57  92 W5        29.50S
LINCOLN*       LGT RAIN  63  60  93 SE6       29.46F
SPRINGFIELD    LGT RAIN  64  60  87 CALM      29.48F
TAYLORVILLE    LGT RAIN  62  60  93 CALM      29.49F
$$

ILZ033-039-045-046-055>057-062-063-262300-
EAST-CENTRAL ILLINOIS

CITY           SKY/WX    TMP DP  RH WIND       PRES   REMARKS
CHAMPAIGN      LGT RAIN  70  55  59 SW29G39   29.55R
RANTOUL*       CLOUDY    75  56  52 W22G31    29.53R
MATTOON        TSTM      63  60  90 VRB5      29.50F FOG
PARIS*         RAIN      73  60  61 W14       29.52S
$$

ILZ079-100>102-262300-
SOUTHWEST ILLINOIS

CITY           SKY/WX    TMP DP  RH WIND       PRES   REMARKS
ALTON          LGT RAIN  61  59  94 E8        29.47F
BELLEVILLE     LGT RAIN  63  63 100 SE5       29.47F
CAHOKIA*       LGT RAIN  63  60  90 SE6       29.48F
SPARTA*        CLOUDY    63  61  94 E7        29.49F
$$

ILZ064>066-069>071-074>076-080>082-084>086-088>090-092>094-262300-
SOUTH-CENTRAL ILLINOIS

CITY           SKY/WX    TMP DP  RH WIND       PRES   REMARKS
CARBONDALE     CLOUDY    61  61 100 E6        29.50
CAIRO*         LGT RAIN  63  58  83 NE5       29.51F
EFFINGHAM*     CLOUDY    64  62  91 SW5       29.54F
MARION         CLOUDY    63  61  94 NE6       29.54F
MT. VERNON     CLOUDY    61  59  93 CALM      29.53F
CENTRALIA*     CLOUDY    63  61  94 SW6       29.53F
SALEM*         CLOUDY    63  60  90 CALM      29.52F
METROPOLIS*    CLOUDY    67  57  71 N10       29.52S
$$

ILZ067-068-072-073-078-083-087-091-262300-
SOUTHEAST ILLINOIS

CITY           SKY/WX    TMP DP  RH WIND       PRES   REMARKS
LAWRENCEVILLE  CLOUDY    80  62  54 SW22G30   29.50S HX  81
FLORA*         CLOUDY    63  60  92 NW7       29.52F
FAIRFIELD*     LGT RAIN  61  59  92 CALM      29.52F
HARRISBURG*    LGT RAIN  62  59  90 NW12      29.53F
ROBINSON*      TSTM      62  60  92 W21G62    29.53R
CARMI*         CLOUDY    65  59  81 W16       29.52R
$$

ABBREVIATIONS USED IN REMARKS
   TC - TEMPERATURE IN CELSIUS
  WCI - WIND CHILL INDEX
   HX - HEAT INDEX
  VSB - VISIBILITY
$$





USA.gov is the U.S. government's official web portal to all federal, state and local government web resources and services.